| time (UTC) | temp F | wind direction | speed knots | gust knots | rain 1hr in | rain 24hr in | rain mn in | humidity % | barometer mb |
| 20260506184311 | 84 | 251 | 5.2 | 9.6 | 0.00 | 0.00 | 0.00 | 55 | 1014.9 |
| 20260506183332 | 84 | 134 | 6.1 | 12.2 | 0.00 | 0.00 | 0.00 | 55 | 1015.0 |
| 20260506182327 | 85 | 283 | 6.1 | 13.9 | 0.00 | 0.00 | 0.00 | 55 | 1015.2 |
| 20260506181324 | 84 | 199 | 4.3 | 13.9 | 0.00 | 0.00 | 0.00 | 57 | 1015.1 |
| 20260506180317 | 84 | 249 | 4.3 | 13.0 | 0.00 | 0.00 | 0.00 | 57 | 1015.4 |
| 20260506175312 | 84 | 114 | 5.2 | 13.9 | 0.00 | 0.00 | 0.00 | 59 | 1015.1 |
| 20260506174316 | 83 | 167 | 4.3 | 11.3 | 0.00 | 0.00 | 0.00 | 61 | 1015.5 |
| 20260506173323 | 82 | 170 | 4.3 | 8.7 | 0.00 | 0.00 | 0.00 | 61 | 1015.5 |
| 20260506172313 | 82 | 133 | 4.3 | 8.7 | 0.00 | 0.00 | 0.00 | 61 | 1015.8 |
| 20260506171312 | 81 | 156 | 6.1 | 14.8 | 0.00 | 0.00 | 0.00 | 60 | 1015.8 |
| 20260506170319 | 82 | 156 | 3.5 | 8.7 | 0.00 | 0.00 | 0.00 | 59 | 1015.8 |
| 20260506165316 | 82 | 205 | 3.5 | 16.5 | 0.00 | 0.00 | 0.00 | 60 | 1015.9 |
| 20260506164336 | 82 | 152 | 5.2 | 11.3 | 0.00 | 0.00 | 0.00 | 60 | 1015.9 |
| 20260506163329 | 80 | 144 | 2.6 | 7.8 | 0.00 | 0.00 | 0.00 | 63 | 1015.7 |
| 20260506162323 | 80 | 209 | 5.2 | 11.3 | 0.00 | 0.00 | 0.00 | 61 | 1015.7 |
| 20260506161325 | 80 | 211 | 3.5 | 13.0 | 0.00 | 0.00 | 0.00 | 62 | 1015.9 |
| 20260506160315 | 80 | 155 | 7.0 | 13.9 | 0.00 | 0.00 | 0.00 | 62 | 1016.0 |
| 20260506155332 | 79 | 140 | 4.3 | 13.0 | 0.00 | 0.00 | 0.00 | 63 | 1015.9 |
| 20260506154324 | 78 | 166 | 4.3 | 11.3 | 0.00 | 0.00 | 0.00 | 64 | 1015.9 |
| 20260506153322 | 78 | 153 | 3.5 | 10.4 | 0.00 | 0.00 | 0.00 | 64 | 1015.8 |
| 20260506152317 | 77 | 147 | 4.3 | 13.9 | 0.00 | 0.00 | 0.00 | 63 | 1015.3 |
| 20260506151310 | 77 | 137 | 6.1 | 14.8 | 0.00 | 0.00 | 0.00 | 63 | 1015.8 |
| 20260506150309 | 77 | 142 | 6.1 | 10.4 | 0.00 | 0.00 | 0.00 | 63 | 1016.0 |
| 20260506145320 | 77 | 159 | 4.3 | 9.6 | 0.00 | 0.00 | 0.00 | 64 | 1016.1 |
| 20260506144319 | 76 | 177 | 5.2 | 12.2 | 0.00 | 0.00 | 0.00 | 65 | 1016.2 |
| 20260506143315 | 76 | 218 | 5.2 | 10.4 | 0.00 | 0.00 | 0.00 | 65 | 1016.2 |
| 20260506142313 | 75 | 161 | 3.5 | 10.4 | 0.00 | 0.00 | 0.00 | 66 | 1016.2 |
| 20260506141326 | 75 | 83 | 5.2 | 13.0 | 0.00 | 0.00 | 0.00 | 67 | 1016.4 |
| 20260506140324 | 75 | 213 | 2.6 | 7.8 | 0.00 | 0.00 | 0.00 | 68 | 1016.3 |
| 20260506135335 | 74 | 148 | 5.2 | 13.9 | 0.00 | 0.00 | 0.00 | 68 | 1016.4 |
| 20260506134312 | 74 | 219 | 5.2 | 10.4 | 0.00 | 0.00 | 0.00 | 69 | 1016.6 |
| 20260506133325 | 73 | 161 | 3.5 | 7.8 | 0.00 | 0.00 | 0.00 | 71 | 1016.6 |
| 20260506132316 | 72 | 145 | 3.5 | 8.7 | 0.00 | 0.00 | 0.00 | 72 | 1016.8 |
| 20260506131338 | 72 | 207 | 3.5 | 12.2 | 0.00 | 0.00 | 0.00 | 72 | 1016.7 |
| 20260506130330 | 72 | 192 | 4.3 | 7.8 | 0.00 | 0.00 | 0.00 | 72 | 1016.6 |
| 20260506125325 | 71 | 197 | 2.6 | 7.0 | 0.00 | 0.00 | 0.00 | 75 | 1016.2 |
| 20260506124342 | 71 | 175 | 2.6 | 7.8 | 0.00 | 0.00 | 0.00 | 76 | 1016.1 |
| 20260506123314 | 70 | 108 | 4.3 | 7.8 | 0.00 | 0.00 | 0.00 | 76 | 1016.3 |
| 20260506122332 | 70 | 163 | 2.6 | 9.6 | 0.00 | 0.00 | 0.00 | 76 | 1016.1 |
| 20260506121348 | 69 | 209 | 2.6 | 7.0 | 0.00 | 0.00 | 0.00 | 77 | 1016.0 |
| 20260506120317 | 69 | 231 | 4.3 | 8.7 | 0.00 | 0.00 | 0.00 | 78 | 1015.9 |
| 20260506115328 | 68 | 152 | 2.6 | 6.1 | 0.00 | 0.00 | 0.00 | 79 | 1016.0 |
| 20260506114323 | 67 | 167 | 3.5 | 8.7 | 0.00 | 0.00 | 0.00 | 80 | 1015.8 |
| 20260506113322 | 66 | 161 | 5.2 | 9.6 | 0.00 | 0.00 | 0.00 | 81 | 1015.6 |
| 20260506112316 | 66 | 174 | 3.5 | 7.0 | 0.00 | 0.00 | 0.00 | 81 | 1015.7 |
| 20260506111311 | 65 | 161 | 3.5 | 8.7 | 0.00 | 0.00 | 0.00 | 82 | 1015.7 |
| 20260506110334 | 65 | 135 | 2.6 | 7.8 | 0.00 | 0.00 | 0.00 | 82 | 1015.6 |
| 20260506105309 | 65 | 140 | 2.6 | 8.7 | 0.00 | 0.00 | 0.00 | 82 | 1015.6 |
| 20260506104311 | 65 | 112 | 3.5 | 9.6 | 0.00 | 0.00 | 0.00 | 83 | 1015.6 |
| 20260506103332 | 64 | 47 | 4.3 | 8.7 | 0.00 | 0.00 | 0.00 | 84 | 1015.4 |
| 20260506102324 | 64 | 111 | 3.5 | 7.8 | 0.00 | 0.00 | 0.00 | 85 | 1015.6 |
| 20260506101322 | 64 | 170 | 2.6 | 6.1 | 0.00 | 0.00 | 0.00 | 85 | 1015.8 |
| 20260506100345 | 64 | 212 | 1.7 | 4.3 | 0.00 | 0.00 | 0.00 | 85 | 1015.8 |
| 20260506095320 | 64 | 117 | 2.6 | 5.2 | 0.00 | 0.00 | 0.00 | 85 | 1015.9 |
| 20260506094323 | 64 | 81 | 2.6 | 5.2 | 0.00 | 0.00 | 0.00 | 85 | 1016.0 |
| 20260506093318 | 64 | 118 | 2.6 | 5.2 | 0.00 | 0.00 | 0.00 | 85 | 1016.1 |
| 20260506092312 | 64 | 185 | 3.5 | 6.1 | 0.00 | 0.00 | 0.00 | 86 | 1016.2 |
| 20260506091312 | 64 | 114 | 0.9 | 4.3 | 0.00 | 0.00 | 0.00 | 86 | 1016.1 |
| 20260506090309 | 64 | 184 | 1.7 | 3.5 | 0.00 | 0.00 | 0.00 | 86 | 1016.1 |
| 20260506085330 | 64 | 130 | 2.6 | 5.2 | 0.00 | 0.00 | 0.00 | 85 | 1015.9 |
| 20260506084310 | 64 | 148 | 1.7 | 4.3 | 0.00 | 0.00 | 0.00 | 85 | 1015.9 |
| 20260506083326 | 64 | 148 | 2.6 | 5.2 | 0.00 | 0.00 | 0.00 | 85 | 1016.0 |
| 20260506082327 | 64 | 178 | 2.6 | 6.1 | 0.00 | 0.00 | 0.00 | 85 | 1015.9 |
| 20260506081322 | 64 | 138 | 2.6 | 6.1 | 0.00 | 0.00 | 0.00 | 85 | 1015.9 |
| 20260506080316 | 64 | 185 | 2.6 | 4.3 | 0.00 | 0.00 | 0.00 | 84 | 1015.8 |
| 20260506073312 | 64 | 111 | 2.6 | 5.2 | 0.00 | 0.00 | 0.00 | 83 | 1015.9 |
| 20260506072326 | 64 | 138 | 2.6 | 6.1 | 0.00 | 0.00 | 0.00 | 83 | 1015.9 |
| 20260506071331 | 64 | 150 | 2.6 | 7.0 | 0.00 | 0.00 | 0.00 | 83 | 1015.9 |
| 20260506070323 | 64 | 153 | 2.6 | 4.3 | 0.00 | 0.00 | 0.00 | 83 | 1015.8 |
| 20260506062334 | 65 | 127 | 2.6 | 5.2 | 0.00 | 0.00 | 0.00 | 81 | 1016.2 |
| 20260506061311 | 65 | 157 | 2.6 | 7.0 | 0.00 | 0.00 | 0.00 | 81 | 1016.3 |
| 20260506060323 | 65 | 153 | 2.6 | 6.1 | 0.00 | 0.00 | 0.00 | 81 | 1016.5 |
| 20260506051317 | 66 | 150 | 2.6 | 8.7 | 0.00 | 0.00 | 0.00 | 79 | 1016.8 |
| 20260506050337 | 66 | 119 | 1.7 | 7.0 | 0.00 | 0.00 | 0.00 | 79 | 1016.9 |
| 20260506044328 | 67 | 149 | 1.7 | 7.8 | 0.00 | 0.00 | 0.00 | 78 | 1017.0 |
| 20260506043321 | 67 | 148 | 2.6 | 7.0 | 0.00 | 0.00 | 0.00 | 78 | 1017.1 |
| 20260506042321 | 67 | 147 | 2.6 | 7.8 | 0.00 | 0.00 | 0.00 | 77 | 1017.1 |
| 20260506041333 | 67 | 150 | 3.5 | 8.7 | 0.00 | 0.00 | 0.00 | 77 | 1017.1 |
| 20260506040311 | 67 | 150 | 3.5 | 8.7 | 0.00 | 0.00 | 0.00 | 77 | 1017.2 |
| 20260506035353 | 68 | 108 | 2.6 | 7.0 | 0.00 | 0.00 | 0.00 | 77 | 1017.3 |
| 20260506034326 | 68 | 162 | 3.5 | 8.7 | 0.00 | 0.00 | 0.00 | 76 | 1017.2 |
| 20260506033329 | 68 | 150 | 3.5 | 8.7 | 0.00 | 0.00 | 0.00 | 76 | 1017.2 |
| 20260506032351 | 68 | 147 | 4.3 | 9.6 | 0.00 | 0.00 | 0.00 | 76 | 1017.4 |
| 20260506031346 | 69 | 136 | 4.3 | 10.4 | 0.00 | 0.00 | 0.00 | 75 | 1017.4 |
| 20260506030329 | 69 | 136 | 4.3 | 8.7 | 0.00 | 0.00 | 0.00 | 75 | 1017.5 |
| 20260506025323 | 69 | 88 | 5.2 | 8.7 | 0.00 | 0.00 | 0.00 | 75 | 1017.5 |
| 20260506024318 | 69 | 155 | 4.3 | 8.7 | 0.00 | 0.00 | 0.00 | 74 | 1017.5 |
| 20260506023325 | 70 | 159 | 4.3 | 9.6 | 0.00 | 0.00 | 0.00 | 74 | 1017.3 |
| 20260506022341 | 70 | 101 | 3.5 | 10.4 | 0.00 | 0.00 | 0.00 | 73 | 1017.4 |
| 20260506021321 | 70 | 139 | 3.5 | 9.6 | 0.00 | 0.00 | 0.00 | 72 | 1017.3 |
| 20260506020318 | 70 | 79 | 2.6 | 10.4 | 0.00 | 0.00 | 0.00 | 71 | 1017.1 |
| 20260506015313 | 71 | 113 | 3.5 | 9.6 | 0.00 | 0.00 | 0.00 | 70 | 1017.1 |
| 20260506014314 | 71 | 159 | 3.5 | 10.4 | 0.00 | 0.00 | 0.00 | 70 | 1016.9 |
| 20260506013311 | 71 | 172 | 3.5 | 9.6 | 0.00 | 0.00 | 0.00 | 69 | 1016.8 |
| 20260506012330 | 72 | 123 | 4.3 | 9.6 | 0.00 | 0.00 | 0.00 | 69 | 1016.8 |
| 20260506011329 | 72 | 206 | 4.3 | 7.8 | 0.00 | 0.00 | 0.00 | 68 | 1016.7 |
| 20260506010331 | 73 | 133 | 5.2 | 7.8 | 0.00 | 0.00 | 0.00 | 67 | 1016.5 |
| 20260506005329 | 73 | 144 | 4.3 | 8.7 | 0.00 | 0.00 | 0.00 | 66 | 1016.3 |
| 20260506004324 | 74 | 155 | 4.3 | 8.7 | 0.00 | 0.00 | 0.00 | 66 | 1016.2 |
| 20260506003320 | 74 | 144 | 6.1 | 8.7 | 0.00 | 0.00 | 0.00 | 65 | 1016.1 |
| 20260506002343 | 75 | 114 | 5.2 | 12.2 | 0.00 | 0.00 | 0.00 | 64 | 1015.9 |
| 20260506001317 | 75 | 146 | 4.3 | 8.7 | 0.00 | 0.00 | 0.00 | 63 | 1015.9 |
| 20260506000319 | 76 | 116 | 5.2 | 10.4 | 0.00 | 0.00 | 0.00 | 62 | 1015.7 |
| 20260505235313 | 76 | 138 | 2.6 | 7.0 | 0.00 | 0.00 | 0.00 | 61 | 1015.8 |
| 20260505234334 | 77 | 182 | 4.3 | 9.6 | 0.00 | 0.00 | 0.00 | 59 | 1015.6 |
| 20260505233310 | 78 | 107 | 6.1 | 11.3 | 0.00 | 0.00 | 0.00 | 58 | 1015.5 |
| 20260505232327 | 78 | 137 | 6.1 | 11.3 | 0.00 | 0.00 | 0.00 | 57 | 1015.5 |
| 20260505231327 | 79 | 149 | 4.3 | 13.0 | 0.00 | 0.00 | 0.00 | 55 | 1015.3 |
| 20260505230329 | 80 | 182 | 4.3 | 11.3 | 0.00 | 0.00 | 0.00 | 55 | 1015.4 |
| 20260505225323 | 81 | 160 | 2.6 | 10.4 | 0.00 | 0.00 | 0.00 | 53 | 1015.5 |
| 20260505224317 | 82 | 145 | 2.6 | 11.3 | 0.00 | 0.00 | 0.00 | 53 | 1015.5 |
| 20260505223320 | 83 | 182 | 4.3 | 8.7 | 0.00 | 0.00 | 0.00 | 52 | 1015.5 |
| 20260505222338 | 83 | 150 | 4.3 | 13.9 | 0.00 | 0.00 | 0.00 | 51 | 1015.5 |
| 20260505221318 | 83 | 140 | 3.5 | 8.7 | 0.00 | 0.00 | 0.00 | 50 | 1015.7 |
| 20260505220311 | 83 | 132 | 4.3 | 10.4 | 0.00 | 0.00 | 0.00 | 52 | 1015.7 |
| 20260505215334 | 84 | 151 | 6.1 | 8.7 | 0.00 | 0.00 | 0.00 | 50 | 1015.6 |
| 20260505214310 | 84 | 122 | 6.1 | 12.2 | 0.00 | 0.00 | 0.00 | 48 | 1015.8 |
| 20260505213326 | 84 | 168 | 4.3 | 15.6 | 0.00 | 0.00 | 0.00 | 48 | 1015.7 |
| 20260505212324 | 83 | 174 | 3.5 | 11.3 | 0.00 | 0.00 | 0.00 | 48 | 1015.7 |
| 20260505211320 | 84 | 113 | 2.6 | 16.5 | 0.00 | 0.00 | 0.00 | 48 | 1015.8 |
| 20260505210316 | 84 | 126 | 3.5 | 13.0 | 0.00 | 0.00 | 0.00 | 46 | 1015.8 |
| 20260505205340 | 85 | 134 | 4.3 | 9.6 | 0.00 | 0.00 | 0.00 | 48 | 1015.8 |
| 20260505204315 | 85 | 165 | 5.2 | 13.0 | 0.00 | 0.00 | 0.00 | 48 | 1015.9 |
| 20260505203323 | 84 | 212 | 4.3 | 8.7 | 0.00 | 0.00 | 0.00 | 49 | 1015.9 |
| 20260505202314 | 85 | 135 | 5.2 | 11.3 | 0.00 | 0.00 | 0.00 | 48 | 1015.8 |
| 20260505201333 | 86 | 130 | 8.7 | 14.8 | 0.00 | 0.00 | 0.00 | 45 | 1016.0 |
| 20260505200331 | 86 | 136 | 4.3 | 11.3 | 0.00 | 0.00 | 0.00 | 46 | 1016.0 |
| 20260505195346 | 85 | 153 | 3.5 | 9.6 | 0.00 | 0.00 | 0.00 | 46 | 1016.1 |
| 20260505194320 | 85 | 139 | 5.2 | 9.6 | 0.00 | 0.00 | 0.00 | 47 | 1016.4 |
| 20260505193318 | 85 | 142 | 6.1 | 10.4 | 0.00 | 0.00 | 0.00 | 46 | 1016.7 |
| 20260505192311 | 85 | 154 | 4.3 | 12.2 | 0.00 | 0.00 | 0.00 | 47 | 1016.9 |
| 20260505191334 | 85 | 155 | 5.2 | 13.9 | 0.00 | 0.00 | 0.00 | 47 | 1016.8 |
| 20260505190328 | 84 | 150 | 4.3 | 8.7 | 0.00 | 0.00 | 0.00 | 47 | 1016.9 |
| 20260505185349 | 84 | 138 | 4.3 | 10.4 | 0.00 | 0.00 | 0.00 | 47 | 1017.2 |